JES1519 SACO-SAME

Flight info

Callsign JES1519
Flight time 0h 55m
Altitude 32000
Route ALDEX1G ALDEX UZ105 SOLER UL531 SALBO SALBO3Q
Aircraft A20N/M-SDE2E3FGHIRWXY/LB1

Departure

Time 2026-04-21 22:31
Airport Ingeniero Aeronáutico Ambrosio L.V. Taravella International Airport (SACO)

Arrival

Time 2026-04-21 23:26
Airport Governor Francisco Gabrielli International Airport (SAME)
Time Latitude Longitude Altitude Speed Heading
2026-04-21 22:15 -31.31502 -64.21192 1575 ft 0 kts 269°
2026-04-21 22:23 -31.31502 -64.21185 1574 ft 0 kts 269°
2026-04-21 22:23 -31.31502 -64.21179 1575 ft 3 kts 269°
2026-04-21 22:23 -31.31501 -64.21152 1575 ft 3 kts 268°
2026-04-21 22:24 -31.31494 -64.21126 1575 ft 3 kts 222°
2026-04-21 22:24 -31.31456 -64.21105 1575 ft 6 kts 194°
2026-04-21 22:24 -31.31414 -64.21098 1575 ft 3 kts 168°
2026-04-21 22:24 -31.31413 -64.21098 1575 ft 0 kts 167°
2026-04-21 22:27 -31.31452 -64.21079 1575 ft 16 kts 143°
2026-04-21 22:28 -31.31465 -64.20955 1575 ft 0 kts 89°
2026-04-21 22:28 -31.31464 -64.20895 1575 ft 19 kts 89°
2026-04-21 22:28 -31.31425 -64.20829 1575 ft 16 kts
2026-04-21 22:28 -31.31238 -64.20831 1574 ft 37 kts 359°
2026-04-21 22:29 -31.30945 -64.20839 1573 ft 45 kts 358°
2026-04-21 22:29 -31.30615 -64.20844 1574 ft 49 kts 359°
2026-04-21 22:29 -31.30266 -64.20846 1576 ft 51 kts 358°
2026-04-21 22:29 -31.29897 -64.20853 1575 ft 55 kts 358°
2026-04-21 22:30 -31.29656 -64.20880 1573 ft 17 kts 340°
2026-04-21 22:30 -31.29656 -64.20830 1574 ft 16 kts 191°
2026-04-21 22:30 -31.29825 -64.20851 1575 ft 36 kts 179°
2026-04-21 22:30 -31.30311 -64.20846 1576 ft 102 kts 179°
2026-04-21 22:31 -31.31210 -64.20832 1574 ft 153 kts 179°
2026-04-21 22:31 -31.32381 -64.20808 1786 ft 177 kts 180°
2026-04-21 22:31 -31.33604 -64.20741 2507 ft 176 kts 175°
2026-04-21 22:31 -31.34768 -64.20652 3421 ft 162 kts 177°
2026-04-21 22:32 -31.35913 -64.20382 3849 ft 179 kts 157°
2026-04-21 22:32 -31.37001 -64.19486 4190 ft 207 kts 133°
2026-04-21 22:32 -31.37814 -64.18019 4964 ft 226 kts 112°
2026-04-21 22:32 -31.38196 -64.16161 5724 ft 241 kts 97°
2026-04-21 22:33 -31.38382 -64.14173 6518 ft 250 kts 95°
2026-04-21 22:33 -31.38575 -64.12161 7348 ft 253 kts 96°
2026-04-21 22:33 -31.38825 -64.10108 8198 ft 257 kts 98°
2026-04-21 22:33 -31.38818 -64.08019 9009 ft 260 kts 73°
2026-04-21 22:34 -31.37988 -64.06155 9774 ft 260 kts 44°
2026-04-21 22:34 -31.36502 -64.04982 10514 ft 259 kts 15°
2026-04-21 22:34 -31.34728 -64.04727 11231 ft 258 kts 352°
2026-04-21 22:34 -31.33066 -64.05345 11966 ft 255 kts 324°
2026-04-21 22:35 -31.31844 -64.06820 12715 ft 253 kts 298°
2026-04-21 22:35 -31.31294 -64.08759 13487 ft 254 kts 274°
2026-04-21 22:35 -31.31300 -64.10833 14254 ft 254 kts 269°
2026-04-21 22:35 -31.31328 -64.12863 15040 ft 252 kts 270°
2026-04-21 22:36 -31.31345 -64.16941 16597 ft 249 kts 270°
2026-04-21 22:36 -31.31345 -64.18964 17357 ft 248 kts 270°
2026-04-21 22:36 -31.31489 -64.20973 18118 ft 248 kts 262°
2026-04-21 22:37 -31.31881 -64.22946 18742 ft 253 kts 258°
2026-04-21 22:37 -31.32335 -64.25020 18902 ft 273 kts 258°
2026-04-21 22:37 -31.32813 -64.27251 19046 ft 292 kts 258°
2026-04-21 22:37 -31.33314 -64.29605 19189 ft 311 kts 258°
2026-04-21 22:38 -31.33855 -64.32141 19328 ft 329 kts 258°
2026-04-21 22:38 -31.34424 -64.34812 19525 ft 344 kts 258°
2026-04-21 22:38 -31.35010 -64.37549 20066 ft 348 kts 258°
2026-04-21 22:38 -31.35599 -64.40304 20674 ft 350 kts 258°
2026-04-21 22:39 -31.36191 -64.43077 21313 ft 353 kts 259°
2026-04-21 22:39 -31.36787 -64.45878 21881 ft 356 kts 259°
2026-04-21 22:39 -31.37388 -64.48710 22463 ft 359 kts 259°
2026-04-21 22:39 -31.37985 -64.51528 23036 ft 362 kts 259°
2026-04-21 22:40 -31.38598 -64.54395 23619 ft 366 kts 258°
2026-04-21 22:40 -31.39413 -64.57244 24107 ft 371 kts 252°
2026-04-21 22:40 -31.40380 -64.60060 24618 ft 372 kts 252°
2026-04-21 22:40 -31.41336 -64.62875 25112 ft 374 kts 253°
2026-04-21 22:41 -31.42295 -64.65714 25551 ft 376 kts 253°
2026-04-21 22:41 -31.43259 -64.68573 26047 ft 377 kts 253°
2026-04-21 22:41 -31.44224 -64.71437 26524 ft 379 kts 253°
2026-04-21 22:41 -31.45194 -64.74324 26928 ft 382 kts 253°
2026-04-21 22:42 -31.46157 -64.77183 27452 ft 381 kts 253°
2026-04-21 22:42 -31.47131 -64.80079 27835 ft 384 kts 253°
2026-04-21 22:42 -31.48110 -64.82995 28250 ft 385 kts 254°
2026-04-21 22:42 -31.49119 -64.85916 28665 ft 389 kts 251°
2026-04-21 22:43 -31.50363 -64.88763 29068 ft 395 kts 246°
2026-04-21 22:43 -31.51790 -64.91542 29432 ft 398 kts 246°
2026-04-21 22:43 -31.53219 -64.94338 29824 ft 400 kts 246°
2026-04-21 22:43 -31.54651 -64.97153 30202 ft 402 kts 246°
2026-04-21 22:44 -31.56083 -64.99973 30515 ft 404 kts 246°
2026-04-21 22:44 -31.57504 -65.02773 30863 ft 404 kts 246°
2026-04-21 22:44 -31.58944 -65.05612 31162 ft 406 kts 246°
2026-04-21 22:44 -31.60392 -65.08465 31553 ft 405 kts 246°
2026-04-21 22:45 -31.61830 -65.11300 31947 ft 403 kts 247°
2026-04-21 22:45 -31.63264 -65.14129 32079 ft 401 kts 247°
2026-04-21 22:45 -31.66018 -65.19780 32093 ft 395 kts 251°
2026-04-21 22:46 -31.68108 -65.25659 32095 ft 393 kts 255°
2026-04-21 22:46 -31.70155 -65.31611 32089 ft 392 kts 255°
2026-04-21 22:47 -31.72196 -65.37549 32093 ft 392 kts 255°
2026-04-21 22:47 -31.74236 -65.43507 32091 ft 392 kts 255°
2026-04-21 22:48 -31.76256 -65.49417 32088 ft 392 kts 255°
2026-04-21 22:48 -31.78286 -65.55367 32091 ft 392 kts 255°
2026-04-21 22:49 -31.80313 -65.61320 32093 ft 392 kts 255°
2026-04-21 22:49 -31.82335 -65.67267 32097 ft 391 kts 255°
2026-04-21 22:50 -31.84342 -65.73181 32090 ft 391 kts 255°
2026-04-21 22:50 -31.86354 -65.79121 32092 ft 391 kts 255°
2026-04-21 22:51 -31.88365 -65.85069 32090 ft 390 kts 255°
2026-04-21 22:51 -31.90361 -65.90986 32095 ft 390 kts 255°
2026-04-21 22:52 -31.92361 -65.96923 32094 ft 390 kts 255°
2026-04-21 22:52 -31.94019 -66.01851 32094 ft 389 kts 255°
2026-04-21 22:53 -31.96017 -66.07818 32096 ft 389 kts 255°
2026-04-21 22:53 -31.97986 -66.13707 32096 ft 389 kts 255°
2026-04-21 22:54 -31.99966 -66.19637 32097 ft 389 kts 255°
2026-04-21 22:54 -32.01943 -66.25571 32091 ft 388 kts 255°
2026-04-21 22:55 -32.03913 -66.31492 32093 ft 388 kts 255°
2026-04-21 22:55 -32.05881 -66.37420 32093 ft 388 kts 255°
2026-04-21 22:56 -32.07834 -66.43312 32095 ft 388 kts 255°
2026-04-21 22:56 -32.09800 -66.49257 32097 ft 388 kts 255°
2026-04-21 22:57 -32.11761 -66.55193 32099 ft 388 kts 255°
2026-04-21 22:57 -32.13725 -66.61139 32100 ft 388 kts 255°
2026-04-21 22:58 -32.15682 -66.67076 32101 ft 388 kts 255°
2026-04-21 22:58 -32.17623 -66.72977 32101 ft 388 kts 255°
2026-04-21 22:59 -32.19571 -66.78908 32096 ft 387 kts 256°
2026-04-21 22:59 -32.21514 -66.84837 32105 ft 386 kts 256°
2026-04-21 23:00 -32.23452 -66.90761 32099 ft 386 kts 256°
2026-04-21 23:00 -32.25383 -66.96676 32098 ft 385 kts 256°
2026-04-21 23:01 -32.27307 -67.02580 32085 ft 384 kts 256°
2026-04-21 23:01 -32.28254 -67.05489 31708 ft 384 kts 256°
2026-04-21 23:01 -32.29215 -67.08452 30856 ft 389 kts 256°
2026-04-21 23:02 -32.30195 -67.11487 29570 ft 401 kts 255°
2026-04-21 23:02 -32.31199 -67.14591 28488 ft 405 kts 255°
2026-04-21 23:02 -32.32207 -67.17693 27725 ft 402 kts 255°
2026-04-21 23:02 -32.33205 -67.20764 26972 ft 399 kts 255°
2026-04-21 23:03 -32.34194 -67.23814 26217 ft 396 kts 255°
2026-04-21 23:03 -32.35178 -67.26858 25452 ft 395 kts 255°
2026-04-21 23:03 -32.36156 -67.29889 24730 ft 393 kts 255°
2026-04-21 23:03 -32.37071 -67.32726 24059 ft 392 kts 254°
2026-04-21 23:04 -32.38039 -67.35733 23347 ft 390 kts 254°
2026-04-21 23:04 -32.38999 -67.38709 22858 ft 382 kts 254°
2026-04-21 23:04 -32.39925 -67.41578 22355 ft 374 kts 254°
2026-04-21 23:04 -32.40844 -67.44432 21865 ft 367 kts 254°
2026-04-21 23:05 -32.41746 -67.47240 21369 ft 361 kts 254°
2026-04-21 23:05 -32.42631 -67.50000 20884 ft 355 kts 254°
2026-04-21 23:05 -32.43502 -67.52719 20405 ft 350 kts 254°
2026-04-21 23:05 -32.44359 -67.55395 19940 ft 345 kts 254°
2026-04-21 23:06 -32.45196 -67.58011 19476 ft 341 kts 254°
2026-04-21 23:06 -32.46029 -67.60622 19015 ft 338 kts 254°
2026-04-21 23:06 -32.46857 -67.63215 18551 ft 335 kts 254°
2026-04-21 23:06 -32.47679 -67.65792 18059 ft 331 kts 254°
2026-04-21 23:07 -32.48488 -67.68330 17608 ft 327 kts 254°
2026-04-21 23:07 -32.49287 -67.70834 17154 ft 323 kts 254°
2026-04-21 23:07 -32.50077 -67.73313 16708 ft 319 kts 254°
2026-04-21 23:07 -32.50898 -67.75714 16279 ft 318 kts 249°
2026-04-21 23:08 -32.51966 -67.78008 15843 ft 319 kts 243°
2026-04-21 23:08 -32.53320 -67.80248 15383 ft 349 kts 238°
2026-04-21 23:08 -32.54833 -67.82595 14886 ft 364 kts 238°
2026-04-21 23:08 -32.56385 -67.85002 14399 ft 368 kts 237°
2026-04-21 23:09 -32.57937 -67.87405 14015 ft 364 kts 237°
2026-04-21 23:09 -32.59469 -67.89780 13389 ft 361 kts 237°
2026-04-21 23:09 -32.60987 -67.92140 12838 ft 357 kts 237°
2026-04-21 23:09 -32.62459 -67.94430 12356 ft 351 kts 237°
2026-04-21 23:10 -32.63945 -67.96744 11869 ft 346 kts 237°
2026-04-21 23:10 -32.65376 -67.98977 11402 ft 341 kts 237°
2026-04-21 23:10 -32.66801 -68.01201 10928 ft 337 kts 237°
2026-04-21 23:10 -32.68209 -68.03401 10537 ft 331 kts 236°
2026-04-21 23:11 -32.69572 -68.05527 10397 ft 316 kts 237°
2026-04-21 23:11 -32.70876 -68.07560 10279 ft 302 kts 237°
2026-04-21 23:11 -32.72123 -68.09508 10153 ft 289 kts 237°
2026-04-21 23:11 -32.73311 -68.11366 9884 ft 283 kts 237°
2026-04-21 23:12 -32.74486 -68.13212 9571 ft 278 kts 236°
2026-04-21 23:12 -32.75610 -68.14979 9231 ft 274 kts 236°
2026-04-21 23:12 -32.76747 -68.16769 8970 ft 268 kts 236°
2026-04-21 23:12 -32.77886 -68.18564 8920 ft 279 kts 236°
2026-04-21 23:13 -32.79053 -68.20398 8885 ft 277 kts 235°
2026-04-21 23:13 -32.80213 -68.22220 8811 ft 276 kts 235°
2026-04-21 23:13 -32.81374 -68.24042 8725 ft 276 kts 235°
2026-04-21 23:13 -32.82534 -68.25862 8649 ft 275 kts 235°
2026-04-21 23:14 -32.83672 -68.27651 8567 ft 275 kts 235°
2026-04-21 23:14 -32.84827 -68.29466 8496 ft 275 kts 234°
2026-04-21 23:14 -32.85969 -68.31262 8419 ft 275 kts 234°
2026-04-21 23:14 -32.87126 -68.33082 8337 ft 275 kts 234°
2026-04-21 23:15 -32.88277 -68.34895 8260 ft 275 kts 234°
2026-04-21 23:15 -32.89428 -68.36706 8178 ft 274 kts 234°
2026-04-21 23:15 -32.90581 -68.38523 8106 ft 275 kts 234°
2026-04-21 23:15 -32.91727 -68.40329 8034 ft 273 kts 234°
2026-04-21 23:16 -32.92874 -68.42137 7955 ft 273 kts 234°
2026-04-21 23:16 -32.94017 -68.43943 7875 ft 273 kts 234°
2026-04-21 23:16 -32.95162 -68.45752 7807 ft 272 kts 234°
2026-04-21 23:16 -32.96289 -68.47532 7729 ft 272 kts 234°
2026-04-21 23:17 -32.97428 -68.49333 7656 ft 272 kts 234°
2026-04-21 23:17 -32.98566 -68.51132 7578 ft 271 kts 234°
2026-04-21 23:17 -32.99700 -68.52926 7507 ft 271 kts 233°
2026-04-21 23:17 -33.00837 -68.54727 7422 ft 271 kts 233°
2026-04-21 23:18 -33.01953 -68.56493 7351 ft 268 kts 233°
2026-04-21 23:18 -33.03047 -68.58226 7245 ft 254 kts 233°
2026-04-21 23:18 -33.04077 -68.59859 7126 ft 238 kts 233°
2026-04-21 23:18 -33.04957 -68.61477 7085 ft 232 kts 247°
2026-04-21 23:19 -33.05311 -68.63365 7063 ft 236 kts 269°
2026-04-21 23:19 -33.05282 -68.65328 6958 ft 235 kts 270°
2026-04-21 23:19 -33.05252 -68.67299 6524 ft 240 kts 269°
2026-04-21 23:19 -33.05228 -68.69267 6151 ft 235 kts 269°
2026-04-21 23:20 -33.05209 -68.71151 5935 ft 230 kts 269°
2026-04-21 23:20 -33.05191 -68.73111 5705 ft 240 kts 270°
2026-04-21 23:20 -33.05173 -68.75086 5501 ft 232 kts 270°
2026-04-21 23:20 -33.05103 -68.76932 5412 ft 215 kts 282°
2026-04-21 23:21 -33.04455 -68.78438 5297 ft 198 kts 317°
2026-04-21 23:21 -33.03306 -68.79243 5273 ft 186 kts 342°
2026-04-21 23:21 -33.02126 -68.79505 5200 ft 159 kts 355°
2026-04-21 23:21 -33.01091 -68.79551 5123 ft 144 kts
2026-04-21 23:22 -33.00092 -68.79541 5065 ft 145 kts
2026-04-21 23:22 -32.99087 -68.79526 5002 ft 144 kts
2026-04-21 23:22 -32.98087 -68.79511 4939 ft 144 kts
2026-04-21 23:22 -32.97082 -68.79496 4782 ft 144 kts
2026-04-21 23:23 -32.96086 -68.79481 4616 ft 143 kts
2026-04-21 23:23 -32.95092 -68.79466 4423 ft 143 kts
2026-04-21 23:23 -32.94095 -68.79451 4253 ft 143 kts
2026-04-21 23:23 -32.93109 -68.79436 4060 ft 140 kts
2026-04-21 23:24 -32.92129 -68.79421 3875 ft 140 kts
2026-04-21 23:24 -32.91161 -68.79407 3685 ft 138 kts
2026-04-21 23:24 -32.90199 -68.79392 3504 ft 138 kts
2026-04-21 23:24 -32.89260 -68.79378 3321 ft 136 kts
2026-04-21 23:25 -32.88302 -68.79364 3140 ft 138 kts
2026-04-21 23:25 -32.87346 -68.79350 2948 ft 137 kts
2026-04-21 23:25 -32.86395 -68.79336 2759 ft 135 kts
2026-04-21 23:25 -32.85460 -68.79321 2563 ft 134 kts
2026-04-21 23:26 -32.84520 -68.79307 2374 ft 135 kts
2026-04-21 23:26 -32.83662 -68.79295 2312 ft 80 kts
2026-04-21 23:26 -32.83321 -68.79289 2312 ft 43 kts
2026-04-21 23:26 -32.83153 -68.79359 2311 ft 18 kts 263°
2026-04-21 23:27 -32.83211 -68.79481 2319 ft 10 kts 239°
2026-04-21 23:27 -32.83207 -68.79502 2312 ft 5 kts 298°
2026-04-21 23:27 -32.83143 -68.79513 2314 ft 15 kts
2026-04-21 23:27 -32.83022 -68.79525 2310 ft 15 kts 314°
2026-04-21 23:28 -32.82938 -68.79625 2313 ft 21 kts 301°
2026-04-21 23:28 -32.82888 -68.79726 2311 ft 9 kts 356°
2026-04-21 23:28 -32.82793 -68.79714 2310 ft 18 kts 343°
2026-04-21 23:28 -32.82767 -68.79781 2305 ft 0 kts 272°